EW3334 Weather Reports


time (UTC)temp
F
wind
direction
speed
knots
gust
knots
rain 1hr
in
rain 24hr
in
rain mn
in
humidity
%
barometer
mb
20260507135024 54 297 5.2 8.7 0.00 0.28 0.00 62 1006.9
20260507134524 54 263 2.6 6.1 0.00 0.28 0.00 63 1006.9
20260507134026 54 234 1.7 7.8 0.00 0.28 0.00 64 1007.0
20260507133522 54 296 2.6 7.8 0.00 0.28 0.00 66 1007.0
20260507133020 53 329 1.7 5.2 0.00 0.28 0.00 68 1007.0
20260507132518 53 69 1.7 4.3 0.00 0.28 0.00 68 1007.0
20260507132017 52 246 1.7 7.8 0.00 0.28 0.00 68 1007.2
20260507131517 52 338 1.7 7.8 0.00 0.28 0.00 68 1007.3
20260507131014 52 204 1.7 6.1 0.00 0.28 0.00 70 1007.3
20260507130514 51 289 2.6 6.1 0.00 0.28 0.00 71 1007.3
20260507130025 51 314 0.9 5.2 0.00 0.28 0.00 71 1007.3
20260507125511 51 5 0.9 7.0 0.00 0.28 0.00 71 1007.3
20260507125011 51 288 3.5 7.0 0.00 0.28 0.00 73 1007.3
20260507124515 50 337 3.5 6.1 0.00 0.28 0.00 76 1007.3
20260507124010 50 75 0.9 6.1 0.00 0.28 0.00 74 1007.2
20260507123511 50 250 1.7 6.1 0.00 0.28 0.00 76 1007.2
20260507123007 50 346 1.7 5.2 0.00 0.28 0.00 77 1007.2
20260507122507 49 222 0.9 5.2 0.00 0.28 0.00 78 1007.4
20260507122006 49 306 3.5 5.2 0.00 0.28 0.00 79 1007.5
20260507121505 49 287 2.6 5.2 0.00 0.28 0.00 79 1007.6
20260507121004 48 304 1.7 5.2 0.00 0.28 0.00 80 1007.7
20260507120502 48 190 1.7 7.8 0.00 0.28 0.00 81 1007.7
20260507120006 47 263 4.3 7.8 0.00 0.28 0.00 82 1007.6
20260507115502 47 302 2.6 7.0 0.00 0.28 0.00 83 1007.7
20260507115059 47 342 2.6 7.8 0.00 0.28 0.00 83 1007.7
20260507114604 47 287 2.6 8.7 0.00 0.28 0.00 84 1007.6
20260507114101 46 287 4.3 8.7 0.00 0.28 0.00 85 1007.4
20260507113557 46 290 2.6 5.2 0.00 0.28 0.00 85 1007.3
20260507113056 46 285 0.9 3.5 0.00 0.28 0.00 85 1007.3
20260507112557 46 291 0.9 3.5 0.00 0.28 0.00 85 1007.3
20260507112056 46 237 1.7 4.3 0.00 0.28 0.00 85 1007.3
20260507111600 46 259 2.6 4.3 0.00 0.28 0.00 84 1007.3
20260507111057 46 297 0.9 4.3 0.00 0.28 0.00 84 1007.4
20260507110553 46 303 0.9 5.2 0.00 0.28 0.00 84 1007.3
20260507110053 46 292 3.5 5.2 0.00 0.28 0.00 84 1007.1
20260507105552 46 293 1.7 6.1 0.00 0.28 0.00 84 1007.1
20260507105051 46 325 1.7 6.1 0.00 0.28 0.00 84 1007.0
20260507104551 46 257 3.5 6.1 0.00 0.28 0.00 84 1006.9
20260507104050 46 324 0.0 3.5 0.00 0.28 0.00 84 1006.8
20260507103549 46 292 0.9 3.5 0.00 0.28 0.00 84 1007.0
20260507103049 46 327 0.9 3.5 0.00 0.28 0.00 83 1007.0
20260507102548 46 279 0.9 3.5 0.00 0.28 0.00 83 1006.9
20260507102048 46 329 0.0 4.3 0.00 0.28 0.00 83 1006.8
20260507101601 46 272 1.7 4.3 0.00 0.28 0.00 83 1006.9
20260507101046 46 257 1.7 6.1 0.00 0.28 0.00 83 1006.9
20260507100545 46 242 1.7 6.1 0.00 0.28 0.00 83 1006.6
20260507100044 46 277 0.0 3.5 0.00 0.28 0.00 82 1006.7
20260507095544 46 275 1.7 5.2 0.00 0.28 0.00 82 1007.1
20260507095044 46 300 0.9 5.2 0.00 0.28 0.00 82 1007.0
20260507094544 46 302 0.9 5.2 0.00 0.28 0.00 82 1007.1
20260507094042 46 241 0.9 5.2 0.00 0.28 0.00 82 1006.8
20260507093542 46 215 0.9 6.1 0.00 0.28 0.00 82 1006.9
20260507093045 46 259 1.7 7.0 0.00 0.28 0.00 82 1006.8
20260507092542 46 316 2.6 8.7 0.00 0.28 0.00 83 1006.8
20260507092042 47 298 1.7 7.0 0.00 0.28 0.00 83 1006.8
20260507091540 47 293 0.9 4.3 0.00 0.28 0.00 83 1007.0
20260507091040 47 282 0.0 4.3 0.00 0.28 0.00 83 1006.9
20260507090539 47 284 0.9 4.3 0.00 0.28 0.00 83 1007.1
20260507090038 47 328 0.9 6.1 0.00 0.28 0.00 83 1007.1
20260507085541 47 234 1.7 7.0 0.00 0.28 0.00 83 1007.1
20260507085038 47 279 2.6 7.8 0.00 0.28 0.00 83 1006.9
20260507084539 47 292 2.6 7.8 0.00 0.28 0.00 84 1006.6
20260507084034 47 240 3.5 7.8 0.00 0.28 0.00 84 1006.6
20260507083535 47 288 1.7 6.1 0.00 0.28 0.00 84 1006.5
20260507083040 47 296 1.7 6.1 0.00 0.28 0.00 84 1006.4
20260507082533 47 291 1.7 7.0 0.00 0.28 0.00 84 1006.6
20260507082033 47 215 2.6 7.8 0.00 0.28 0.00 84 1006.4
20260507081537 47 258 3.5 7.8 0.00 0.28 0.00 84 1006.3
20260507081031 47 267 2.6 7.0 0.00 0.28 0.00 84 1006.3
20260507080531 47 245 1.7 6.1 0.00 0.28 0.00 85 1006.2
20260507080033 47 275 1.7 6.1 0.00 0.28 0.00 84 1006.2
20260507075530 47 248 0.9 7.0 0.00 0.28 0.00 84 1006.4
20260507075030 47 225 3.5 7.0 0.00 0.28 0.00 84 1006.7
20260507074529 48 256 2.6 5.2 0.00 0.28 0.00 84 1006.7
20260507074027 47 211 0.0 2.6 0.00 0.28 0.00 84 1006.6
20260507073527 48 211 0.9 6.1 0.00 0.28 0.00 84 1006.5
20260507073026 48 292 1.7 7.0 0.00 0.28 0.00 84 1006.3
20260507072527 48 310 1.7 4.3 0.00 0.28 0.00 84 1006.1
20260507072026 48 227 1.7 7.8 0.00 0.28 0.00 85 1006.0
20260507071528 48 280 4.3 7.8 0.00 0.28 0.00 85 1006.1
20260507071024 48 5 0.0 7.8 0.00 0.28 0.00 85 1006.0
20260507070523 48 253 1.7 10.4 0.00 0.28 0.00 85 1006.1
20260507070024 48 273 0.9 10.4 0.00 0.28 0.00 85 1005.8
20260507065523 48 274 4.3 11.3 0.00 0.28 0.00 85 1006.1
20260507065021 48 360 4.3 13.9 0.00 0.28 0.00 85 1005.8
20260507064520 48 275 4.3 10.4 0.00 0.28 0.00 86 1005.7
20260507064020 48 265 5.2 9.6 0.00 0.28 0.00 86 1005.8
20260507063520 48 277 3.5 8.7 0.00 0.28 0.00 87 1006.0
20260507063019 48 292 3.5 8.7 0.00 0.28 0.00 87 1005.9
20260507062519 48 304 2.6 8.7 0.00 0.28 0.00 87 1005.7
20260507062017 48 239 1.7 5.2 0.00 0.28 0.00 88 1006.0
20260507061517 48 248 0.9 5.2 0.00 0.28 0.00 88 1006.0
20260507061015 48 301 2.6 5.2 0.00 0.28 0.00 88 1006.1
20260507060515 48 271 0.0 7.0 0.00 0.28 0.00 88 1005.6
20260507060015 48 314 1.7 7.0 0.00 0.28 0.00 88 1005.9
20260507055514 48 284 2.6 8.7 0.00 0.28 0.00 89 1006.1
20260507055014 48 240 0.9 8.7 0.00 0.28 0.00 89 1006.3
20260507054513 48 294 1.7 4.3 0.00 0.28 0.00 89 1006.2
20260507054012 48 167 0.9 4.3 0.00 0.28 0.00 89 1006.0
20260507053512 48 212 0.9 4.3 0.00 0.28 0.00 89 1006.1
20260507053011 48 284 0.9 5.2 0.00 0.28 0.00 89 1006.1
20260507052510 48 314 0.9 5.2 0.00 0.28 0.00 89 1006.1
20260507052012 49 327 1.7 4.3 0.00 0.28 0.00 89 1006.1
20260507051509 49 285 1.7 6.1 0.00 0.28 0.00 90 1006.1
20260507051007 49 330 0.9 7.0 0.00 0.28 0.00 90 1006.1
20260507050506 49 283 2.6 5.2 0.00 0.28 0.00 90 1006.2
20260507050009 49 219 0.9 3.5 0.00 0.28 0.00 90 1005.9
20260507045510 49 263 0.0 2.6 0.00 0.28 0.00 91 1006.0
20260507045006 50 274 0.9 5.2 0.00 0.28 0.00 91 1005.8
20260507044506 50 310 1.7 5.2 0.00 0.28 0.00 91 1005.9
20260507044006 50 194 0.9 6.1 0.00 0.28 0.00 91 1005.9
20260507043504 50 220 2.6 6.1 0.00 0.28 0.00 91 1006.0
20260507043003 50 303 2.6 7.8 0.00 0.28 0.00 91 1005.9
20260507042504 50 289 4.3 7.8 0.00 0.28 0.00 91 1006.0
20260507042003 50 287 0.9 6.1 0.00 0.28 0.00 91 1006.1
20260507041506 50 236 0.0 4.3 0.00 0.28 0.00 91 1006.1
20260507041001 50 230 0.9 5.2 0.00 0.28 0.00 91 1006.0
20260507040601 50 255 0.9 6.1 0.01 0.28 0.00 90 1006.0
20260507040101 50 254 3.5 7.8 0.01 0.28 0.00 90 1005.7
20260507035559 50 275 3.5 7.8 0.03 0.28 0.28 90 1005.7
20260507035059 50 243 3.5 9.6 0.03 0.28 0.28 90 1005.7
20260507034607 51 299 1.7 11.3 0.03 0.28 0.28 90 1005.8
20260507034056 51 286 5.2 11.3 0.03 0.28 0.28 89 1005.6
20260507033559 51 221 2.6 10.4 0.03 0.28 0.28 89 1005.6
20260507033056 51 242 3.5 14.8 0.03 0.28 0.28 89 1005.7
20260507032554 51 336 4.3 14.8 0.03 0.28 0.28 89 1005.4
20260507032053 52 290 5.2 13.9 0.03 0.28 0.28 89 1005.4
20260507031551 52 290 6.1 14.8 0.03 0.28 0.28 90 1005.3
20260507031052 53 282 4.3 14.8 0.03 0.28 0.28 90 1005.3
20260507030548 53 213 4.3 13.9 0.02 0.27 0.27 91 1005.4
20260507030051 54 306 3.5 13.9 0.02 0.27 0.27 91 1005.5
20260507025545 55 325 5.2 12.2 0.00 0.25 0.25 92 1005.5
20260507025044 55 268 3.5 10.4 0.00 0.25 0.25 92 1005.5
20260507024543 56 260 4.3 11.3 0.01 0.25 0.25 92 1005.4
20260507024042 56 320 2.6 11.3 0.01 0.25 0.25 93 1005.2
20260507023540 57 252 3.5 10.4 0.01 0.25 0.25 93 1005.2
20260507023038 57 289 5.2 10.4 0.01 0.25 0.25 94 1005.0
20260507022538 58 304 1.7 7.8 0.01 0.25 0.25 94 1004.9
20260507022038 58 289 2.6 9.6 0.01 0.25 0.25 94 1004.7
20260507021536 58 309 3.5 9.6 0.01 0.25 0.25 94 1004.5
20260507021035 58 269 1.7 5.2 0.01 0.25 0.25 94 1004.6
20260507020536 58 271 0.9 5.2 0.01 0.25 0.25 94 1004.5
20260507020035 58 189 0.0 1.7 0.01 0.25 0.25 94 1004.4
20260507015534 58 158 0.0 1.7 0.01 0.25 0.25 94 1004.3
20260507015034 58 158 0.0 1.7 0.01 0.25 0.25 94 1004.3
20260507014549 58 158 0.0 2.6 0.00 0.24 0.24 94 1004.3
20260507014034 58 158 0.9 2.6 0.00 0.24 0.24 94 1004.3
20260507013534 58 179 0.9 2.6 0.00 0.24 0.24 94 1004.4
20260507013043 58 174 0.9 2.6 0.00 0.24 0.24 94 1004.3
20260507012535 58 190 0.9 2.6 0.00 0.24 0.24 94 1004.3
20260507012034 58 186 0.9 2.6 0.00 0.24 0.24 94 1004.3
20260507011538 58 186 0.9 3.5 0.00 0.24 0.24 94 1004.3
20260507011033 58 184 1.7 3.5 0.00 0.24 0.24 94 1004.3
20260507010532 58 167 0.0 2.6 0.00 0.24 0.24 94 1004.3
20260507010034 58 182 0.9 2.6 0.00 0.24 0.24 94 1004.4
20260507005532 58 166 0.0 2.6 0.00 0.24 0.24 94 1004.3
20260507005031 58 166 0.0 2.6 0.00 0.24 0.24 94 1004.3
20260507004532 58 166 1.7 2.6 0.00 0.24 0.24 94 1004.3
20260507004032 58 142 0.0 2.6 0.00 0.24 0.24 94 1004.2
20260507003531 58 142 0.0 2.6 0.00 0.24 0.24 94 1004.1
20260507003031 58 179 1.7 2.6 0.00 0.24 0.24 94 1004.1
20260507002531 58 169 0.9 3.5 0.00 0.24 0.24 94 1004.1
20260507002032 58 156 0.9 2.6 0.00 0.24 0.24 94 1004.0
20260507001531 58 152 0.9 2.6 0.00 0.24 0.24 94 1004.1
20260507001031 58 141 0.9 3.5 0.00 0.24 0.24 93 1004.0
20260507000533 58 169 1.7 3.5 0.00 0.24 0.24 93 1004.0
20260507000032 58 164 1.7 3.5 0.00 0.24 0.24 93 1003.9
20260506235529 58 148 0.9 5.2 0.00 0.24 0.24 93 1003.8
20260506235029 58 173 0.9 5.2 0.00 0.24 0.24 93 1003.9
20260506234529 58 173 0.9 3.5 0.00 0.24 0.24 93 1003.8
20260506234028 58 181 1.7 3.5 0.00 0.24 0.24 93 1003.8
20260506233527 58 157 0.9 3.5 0.00 0.24 0.24 93 1003.8
20260506233027 58 140 1.7 3.5 0.00 0.24 0.24 93 1003.9
20260506232526 58 181 1.7 4.3 0.00 0.24 0.24 93 1004.0
20260506232026 58 144 0.9 4.3 0.00 0.24 0.24 93 1003.9
20260506231527 59 166 0.9 3.5 0.00 0.24 0.24 93 1003.9
20260506231025 58 148 1.7 3.5 0.00 0.24 0.24 93 1003.9
20260506230524 59 161 0.9 3.5 0.00 0.24 0.24 93 1004.0
20260506230024 59 155 0.9 3.5 0.01 0.24 0.24 93 1004.1
20260506225524 59 159 2.6 3.5 0.01 0.24 0.24 93 1004.0
20260506225027 59 144 1.7 6.1 0.01 0.24 0.24 93 1004.1
20260506224524 59 144 0.9 6.1 0.01 0.24 0.24 93 1004.0
20260506224024 59 169 1.7 3.5 0.01 0.24 0.24 93 1004.0
20260506223523 59 161 0.9 3.5 0.02 0.24 0.24 92 1004.1
20260506223024 59 171 0.9 3.5 0.02 0.24 0.24 92 1004.2
20260506222522 59 151 1.7 3.5 0.02 0.24 0.24 92 1004.2
20260506222021 59 175 0.9 4.3 0.02 0.24 0.24 92 1004.2
20260506221520 59 153 1.7 5.2 0.03 0.24 0.24 92 1004.2
20260506221019 59 175 2.6 4.3 0.03 0.24 0.24 92 1004.3
20260506220520 59 173 2.6 4.3 0.04 0.24 0.24 92 1004.3
20260506220018 59 164 1.7 4.3 0.03 0.23 0.23 92 1004.3
20260506215517 59 159 0.9 6.1 0.03 0.23 0.23 92 1004.4
20260506215016 59 173 2.6 6.1 0.03 0.23 0.23 92 1004.3
20260506214516 59 163 1.7 4.3 0.03 0.23 0.23 92 1004.4
20260506214014 59 152 1.7 4.3 0.04 0.23 0.23 92 1004.4
20260506213515 60 162 1.7 4.3 0.03 0.22 0.22 92 1004.4
20260506213016 60 126 1.7 4.3 0.03 0.22 0.22 92 1004.4
20260506212513 60 149 1.7 5.2 0.03 0.22 0.22 92 1004.5
20260506212012 60 150 2.6 5.2 0.02 0.21 0.21 92 1004.6
20260506211511 60 176 0.9 5.2 0.02 0.21 0.21 92 1004.6
20260506211011 60 177 2.6 5.2 0.02 0.21 0.21 92 1004.5
20260506210511 60 172 1.7 6.1 0.01 0.20 0.20 91 1004.6
20260506210014 60 169 1.7 4.3 0.02 0.20 0.20 91 1004.6
20260506205510 60 155 2.6 4.3 0.03 0.20 0.20 92 1004.7
20260506205009 61 173 1.7 4.3 0.03 0.20 0.20 92 1004.7
20260506204508 61 169 1.7 4.3 0.04 0.20 0.20 91 1004.7
20260506204008 61 173 1.7 4.3 0.03 0.19 0.19 91 1004.7
20260506203508 61 150 1.7 3.5 0.03 0.19 0.19 91 1004.8
20260506203008 61 151 0.9 5.2 0.03 0.19 0.19 91 1004.8
20260506202508 61 148 1.7 6.1 0.03 0.19 0.19 91 1004.8
20260506202013 61 186 1.7 6.1 0.03 0.19 0.19 91 1004.9
20260506201509 61 173 2.6 4.3 0.03 0.19 0.19 91 1004.9
20260506201007 61 164 0.9 3.5 0.03 0.19 0.19 91 1004.9
20260506200506 61 147 0.9 3.5 0.03 0.19 0.19 91 1004.9
20260506200009 61 165 0.9 2.6 0.02 0.18 0.18 91 1004.9
20260506195506 61 178 0.9 2.6 0.02 0.17 0.17 91 1005.0
20260506195006 61 180 1.7 2.6 0.02 0.17 0.17 90 1005.1
20260506194508 61 188 0.9 2.6 0.02 0.16 0.16 90 1005.1
20260506194009 61 167 0.9 2.6 0.03 0.16 0.16 90 1005.1
20260506193509 61 167 0.9 2.6 0.04 0.16 0.16 90 1005.0
20260506193006 61 164 0.9 2.6 0.05 0.16 0.16 90 1005.0
20260506192505 61 159 0.9 2.6 0.05 0.16 0.16 90 1004.9
20260506192007 61 143 0.9 2.6 0.07 0.16 0.16 89 1004.8
20260506191504 62 157 0.9 2.6 0.08 0.16 0.16 89 1004.7
20260506191005 62 247 0.0 1.7 0.10 0.16 0.16 89 1004.9
20260506190503 62 247 0.0 1.7 0.11 0.16 0.16 88 1005.0
20260506190003 62 247 0.0 1.7 0.12 0.16 0.16 87 1005.1
20260506185600 62 247 0.0 0.9 0.11 0.15 0.15 87 1005.1
20260506185100 62 247 0.0 1.7 0.12 0.15 0.15 86 1005.2
20260506184558 62 247 0.0 2.6 0.12 0.14 0.14 85 1005.3
20260506184058 63 247 0.9 2.6 0.12 0.13 0.13 85 1005.6
20260506183559 63 247 0.0 1.7 0.12 0.12 0.12 84 1005.6
20260506183057 63 247 0.9 1.7 0.11 0.11 0.11 84 1005.7
20260506182555 64 247 0.0 0.9 0.11 0.11 0.11 83 1005.8
20260506182058 64 247 0.0 1.7 0.09 0.09 0.09 81 1005.9
20260506181554 64 247 0.0 3.5 0.08 0.08 0.08 81 1005.8
20260506181054 65 269 0.9 3.5 0.06 0.06 0.06 79 1005.9
20260506180553 65 315 0.0 1.7 0.05 0.05 0.05 78 1005.8
20260506180103 65 315 0.0 4.3 0.04 0.04 0.04 77 1006.0
20260506175553 66 258 0.0 4.3 0.03 0.03 0.03 75 1006.1
20260506175054 67 159 0.9 3.5 0.03 0.03 0.03 74 1006.1
20260506174552 67 168 0.9 3.5 0.02 0.02 0.02 72 1006.1
20260506174052 68 189 1.7 3.5 0.01 0.01 0.01 70 1006.1
20260506173552 68 146 0.9 3.5 0.00 0.00 0.00 68 1005.9
20260506173107 69 170 0.9 4.3 0.00 0.00 0.00 65 1005.7
20260506172555 69 182 1.7 4.3 0.00 0.00 0.00 64 1005.6
20260506172051 69 159 1.7 4.3 0.00 0.00 0.00 64 1005.4
20260506171558 70 169 2.6 4.3 0.00 0.00 0.00 63 1005.6
20260506171051 70 155 1.7 4.3 0.00 0.00 0.00 62 1005.5
20260506170549 70 160 1.7 5.2 0.00 0.00 0.00 62 1005.6
20260506170049 70 180 2.6 6.1 0.00 0.00 0.00 61 1005.6
20260506165549 70 155 3.5 6.1 0.00 0.00 0.00 60 1005.6
20260506165048 70 172 1.7 7.8 0.00 0.00 0.00 61 1005.6
20260506164548 70 178 3.5 7.8 0.00 0.00 0.00 62 1005.7
20260506164051 70 170 1.7 5.2 0.00 0.00 0.00 62 1005.8
20260506163546 70 161 2.6 5.2 0.00 0.00 0.00 62 1005.9
20260506163049 70 165 2.6 5.2 0.00 0.00 0.00 62 1005.9
20260506162546 70 169 1.7 5.2 0.00 0.00 0.00 62 1006.0
20260506162045 70 113 2.6 5.2 0.00 0.00 0.00 63 1006.1
20260506161552 70 154 1.7 3.5 0.00 0.00 0.00 63 1006.2
20260506161042 70 173 1.7 4.3 0.00 0.00 0.00 64 1006.3
20260506160542 69 59 1.7 5.2 0.00 0.00 0.00 64 1006.4
20260506160040 69 178 1.7 6.1 0.00 0.00 0.00 65 1006.6
20260506155538 69 175 3.5 6.1 0.00 0.00 0.00 65 1006.7
20260506155037 69 153 3.5 5.2 0.00 0.00 0.00 65 1006.8
20260506154536 69 154 2.6 5.2 0.00 0.00 0.00 65 1006.9
20260506154036 69 167 1.7 5.2 0.00 0.00 0.00 65 1007.0
20260506153536 69 161 2.6 5.2 0.00 0.00 0.00 65 1006.9
20260506153038 69 157 1.7 6.1 0.00 0.00 0.00 66 1007.1
20260506152535 69 144 1.7 6.1 0.00 0.00 0.00 65 1007.2
20260506152035 69 162 3.5 6.1 0.00 0.00 0.00 66 1007.3
20260506151535 69 157 3.5 6.1 0.00 0.00 0.00 66 1007.5
20260506151034 69 173 3.5 7.0 0.00 0.00 0.00 66 1007.5
20260506150533 68 167 2.6 7.0 0.00 0.00 0.00 67 1007.5
20260506150035 68 167 1.7 4.3 0.00 0.00 0.00 67 1007.2
20260506145532 68 158 2.6 5.2 0.00 0.00 0.00 67 1007.1
20260506145032 68 174 2.6 5.2 0.00 0.00 0.00 67 1007.5
20260506144531 68 159 1.7 5.2 0.00 0.00 0.00 68 1007.4
20260506144030 68 150 3.5 5.2 0.00 0.00 0.00 68 1007.3
20260506143530 68 174 2.6 5.2 0.00 0.00 0.00 68 1007.3
20260506143029 67 140 3.5 5.2 0.00 0.00 0.00 69 1007.3
20260506142528 67 179 1.7 6.1 0.00 0.00 0.00 69 1007.2
20260506142026 67 171 2.6 5.2 0.00 0.00 0.00 69 1007.2
20260506141525 67 194 1.7 3.5 0.00 0.00 0.00 70 1007.3
20260506141024 66 127 1.7 5.2 0.00 0.00 0.00 71 1007.2
20260506140524 66 121 0.9 5.2 0.00 0.00 0.00 71 1006.9
20260506140023 66 180 1.7 6.1 0.00 0.00 0.00 72 1007.0
20260506135526 65 174 3.5 6.1 0.00 0.00 0.00 72 1007.0